Location: LDNL
(36.4545°S, 141.6685°E)
Time: 15:39:47
(UTC+10:00)

Courier 1B Rocket - Pass Details

Date: 15 August 2022
Orbit: 920 x 1202 km, 28.2° (Epoch: 25 September)

Event Time Altitude Azimuth Distance (km) Brightness Sun altitude
Exits shadow 05:46:36 22° 297° (WNW) 2,357 6.5 -18.6°
Maximum altitude 05:51:23 46° 357° (N) 1,543 6.0 -17.6°
Drops below altitude 10° 05:58:32 10° 68° (ENE) 3,033 8.8 -16.2°
Sets 06:01:23 0° 73° (ENE) 3,955 9.9 -15.6°
